Snowfall_Accumulation
0.1 0.1 0.0 0.0 0.0 0.0 0.0 0.0 0.0 nan nan nan nan nan nan nan nan nan nan nan nan nan nan nan nan nan nan
0.1 0.3 0.0 0.0 0.0 0.0 0.0 0.0 0.0 nan nan nan nan nan nan nan nan nan nan nan nan nan nan nan nan nan nan
0.3 0.1 0.1 0.0 0.0 0.0 0.0 0.0 0.0 nan nan nan nan nan nan nan nan nan nan nan nan nan nan nan nan nan nan
0.0 0.2 0.0 0.0 0.0 0.0 0.0 0.0 0.0 0.0 nan nan nan nan nan nan nan nan nan nan nan nan nan nan nan nan nan
0.3 0.4 0.1 0.0 0.0 0.0 0.0 0.0 0.0 0.0 0.0 0.0 0.0 0.0 0.0 nan nan nan nan nan nan nan nan nan nan nan nan
0.8 0.1 0.0 0.0 0.0 0.0 0.3 0.7 1.1 0.0 0.0 0.0 0.0 0.0 0.0 0.0 nan nan nan nan nan nan nan nan nan nan nan
0.0 0.0 0.0 0.0 0.3 0.5 0.1 0.6 0.3 0.0 0.0 0.1 0.0 0.0 0.0 0.0 nan nan nan nan nan nan nan nan nan nan nan
0.0 0.0 0.0 0.0 0.0 0.3 0.1 0.1 0.0 0.0 0.0 1.8 0.0 0.0 0.0 0.0 nan nan nan nan nan nan nan nan nan nan nan
nan nan nan nan nan 0.3 0.9 1.9 0.5 0.1 0.1 0.4 0.3 0.4 0.2 0.0 0.0 nan nan nan nan nan nan nan nan nan 0.0
0.0 0.0 nan nan nan 0.0 1.1 7.1 3.4 2.5 0.3 4.0 0.9 1.1 4.5 0.4 0.3 0.1 0.0 nan nan nan nan nan nan 0.0 0.1
0.0 0.0 0.0 0.0 0.0 0.1 0.1 5.5 9.6 6.1 0.3 3.8 7.2 2.1 3.4 2.6 0.8 0.5 0.3 0.2 0.2 0.3 nan nan nan 0.1 0.5
0.2 0.4 0.8 1.0 0.8 0.6 0.1 0.5 0.9 4.7 0.8 3.2 21.0 8.3 11.8 6.4 3.2 0.9 0.8 0.8 1.5 2.2 1.6 nan nan nan nan
0.9 1.6 1.6 2.0 1.8 2.0 1.1 1.3 3.0 1.3 1.4 4.2 11.0 9.5 10.5 10.5 6.7 2.7 3.6 1.5 1.2 2.2 1.2 1.4 1.2 0.5 1.0
1.3 0.9 1.2 3.5 3.4 3.0 7.6 6.6 8.3 5.1 1.9 3.3 5.2 7.4 12.1 5.1 6.5 4.8 2.1 9.6 2.2 1.7 0.9 0.7 0.3 0.1 0.1
2.1 2.2 1.9 3.1 3.9 4.1 8.0 9.1 12.5 9.5 7.8 3.6 0.8 1.4 2.9 5.3 8.5 2.4 2.1 2.9 2.6 2.6 2.1 2.8 0.8 0.2 0.0
2.6 3.1 5.3 6.5 7.9 8.8 9.8 11.2 12.2 8.2 8.1 6.7 6.0 7.2 4.2 2.6 4.3 4.3 2.3 3.1 2.7 1.4 1.2 4.6 2.8 0.3 0.0
6.3 7.2 8.1 8.1 9.5 9.8 10.2 8.8 8.4 7.6 8.4 7.5 12.1 13.6 13.4 9.5 1.4 nan 9.0 3.8 2.7 1.9 0.7 1.6 3.3 1.0 0.0
Water_Equivalent
0.05 0.02 0.01 0.00 0.00 0.00 0.00 0.00 0.00 nan nan nan nan nan nan nan nan nan nan nan nan nan nan nan nan nan nan
0.04 0.08 0.01 0.00 0.00 0.00 0.00 0.00 0.00 nan nan nan nan nan nan nan nan nan nan nan nan nan nan nan nan nan nan
0.07 0.02 0.03 0.00 0.00 0.00 0.00 0.00 0.00 nan nan nan nan nan nan nan nan nan nan nan nan nan nan nan nan nan nan
0.01 0.07 0.01 0.01 0.00 0.00 0.00 0.00 0.00 0.00 nan nan nan nan nan nan nan nan nan nan nan nan nan nan nan nan nan
0.09 0.11 0.03 0.00 0.00 0.00 0.00 0.00 0.00 0.00 0.00 0.00 0.00 0.00 0.00 nan nan nan nan nan nan nan nan nan nan nan nan
0.17 0.02 0.00 0.00 0.00 0.00 0.05 0.14 0.18 0.00 0.00 0.00 0.00 0.00 0.00 0.00 nan nan nan nan nan nan nan nan nan nan nan
0.00 0.00 0.00 0.00 0.05 0.09 0.03 0.10 0.05 0.00 0.00 0.01 0.00 0.00 0.00 0.00 nan nan nan nan nan nan nan nan nan nan nan
0.00 0.00 0.00 0.00 0.00 0.05 0.02 0.01 0.01 0.00 0.00 0.33 0.00 0.00 0.00 0.00 nan nan nan nan nan nan nan nan nan nan nan
nan nan nan nan nan 0.08 0.20 0.37 0.13 0.05 0.03 0.11 0.08 0.10 0.07 0.01 0.00 nan nan nan nan nan nan nan nan nan 0.00
0.00 0.00 nan nan nan 0.00 0.24 1.12 0.60 0.44 0.10 0.63 0.19 0.23 0.70 0.11 0.12 0.03 0.00 nan nan nan nan nan nan 0.00 0.02
0.00 0.00 0.00 0.01 0.00 0.02 0.02 0.94 1.43 0.96 0.09 0.69 1.11 0.39 0.61 0.44 0.19 0.15 0.10 0.05 0.05 0.08 nan nan nan 0.04 0.16
0.07 0.14 0.23 0.27 0.26 0.20 0.03 0.13 0.20 0.68 0.16 0.61 2.81 1.12 1.46 0.80 0.45 0.20 0.19 0.21 0.36 0.55 0.47 nan nan nan nan
0.27 0.45 0.44 0.51 0.41 0.39 0.24 0.30 0.57 0.27 0.31 0.80 1.63 1.30 1.37 1.25 0.78 0.38 0.56 0.37 0.35 0.56 0.34 0.44 0.38 0.17 0.25
0.25 0.22 0.30 0.67 0.61 0.57 1.10 1.00 1.19 0.84 0.43 0.71 0.88 1.03 1.44 0.68 0.84 0.60 0.38 1.25 0.52 0.47 0.30 0.25 0.11 0.04 0.04
0.36 0.37 0.37 0.56 0.64 0.75 1.14 1.32 1.61 1.21 0.97 0.66 0.17 0.25 0.49 0.71 1.02 0.39 0.36 0.53 0.62 0.70 0.46 0.63 0.29 0.09 0.00
0.47 0.54 0.81 0.94 1.09 1.26 1.44 1.48 1.50 1.00 0.98 0.88 0.84 0.86 0.72 0.50 0.69 0.62 0.43 0.58 0.67 0.40 0.31 0.76 0.58 0.12 0.00
1.01 1.07 1.12 1.13 1.26 1.27 1.30 1.12 1.03 0.93 1.02 0.96 1.39 1.58 1.51 1.03 0.29 nan 1.39 0.74 0.60 0.42 0.20 0.38 0.65 0.32 0.01
SL_Ratio
2.5 2.5 2.7 3.1 nan nan nan nan nan nan nan nan nan nan nan nan nan nan nan nan nan nan nan nan nan nan nan
3.3 3.5 3.5 nan nan nan nan nan nan nan nan nan nan nan nan nan nan nan nan nan nan nan nan nan nan nan nan
3.7 4.0 4.0 4.0 nan nan nan nan nan nan nan nan nan nan nan nan nan nan nan nan nan nan nan nan nan nan nan
3.1 3.3 3.0 3.3 nan nan nan nan nan nan nan nan nan nan nan nan nan nan nan nan nan nan nan nan nan nan nan
3.5 3.8 3.8 nan nan nan nan nan nan nan nan nan nan nan nan nan nan nan nan nan nan nan nan nan nan nan nan
4.5 4.6 nan nan nan 5.0 4.8 5.0 6.2 nan nan nan nan nan nan nan nan nan nan nan nan nan nan nan nan nan nan
nan nan nan nan 5.0 5.1 4.6 5.3 5.7 nan nan 5.1 nan nan nan nan nan nan nan nan nan nan nan nan nan nan nan
nan nan 4.0 3.3 4.6 5.0 5.0 4.9 3.1 0.0 nan 5.5 nan 3.3 nan nan nan nan nan nan nan nan nan nan nan nan nan
nan nan nan nan nan 4.0 4.5 5.0 4.2 2.5 2.5 4.1 3.5 3.7 3.0 2.4 nan nan nan nan nan nan nan nan nan nan nan
nan nan nan nan nan nan 4.5 6.3 5.7 5.8 3.4 6.4 4.7 5.0 6.5 3.2 2.8 2.7 nan nan nan nan nan nan nan nan 2.8
nan nan nan 2.5 1.7 3.5 4.2 5.9 6.7 6.3 3.5 5.5 6.5 5.3 5.5 6.0 3.9 3.6 3.3 3.4 3.9 3.8 nan nan nan 2.6 3.1
2.9 2.8 3.6 3.7 3.2 3.1 3.5 4.0 4.4 6.9 4.9 5.2 7.5 7.4 8.1 7.9 7.1 4.3 4.2 3.7 4.1 4.0 3.5 nan nan nan nan
3.4 3.5 3.7 3.9 4.3 5.1 4.5 4.4 5.1 4.6 4.7 5.3 6.8 7.3 7.7 8.4 8.6 7.0 6.5 4.1 3.5 4.0 3.7 3.2 3.1 3.1 3.9
5.3 4.0 4.0 5.2 5.6 5.2 6.9 6.6 7.0 6.1 4.4 4.6 5.9 7.2 8.4 7.5 7.7 8.0 5.6 7.7 4.3 3.6 3.1 2.9 2.8 2.6 3.2
5.8 5.9 5.1 5.6 6.1 5.5 7.0 6.9 7.8 7.9 8.1 5.5 4.8 5.3 5.9 7.5 8.3 6.2 5.8 5.5 4.1 3.7 4.5 4.5 2.8 2.5 nan
5.5 5.7 6.6 6.9 7.3 7.0 6.8 7.5 8.1 8.2 8.3 7.6 7.1 8.3 5.8 5.3 6.2 7.0 5.3 5.4 4.1 3.6 3.7 6.1 4.9 2.7 nan
6.2 6.7 7.2 7.2 7.5 7.7 7.9 7.8 8.2 8.2 8.3 7.8 8.6 8.6 8.9 9.3 5.0 nan 6.5 5.1 4.6 4.5 3.5 4.2 5.1 3.2 2.7